Time,TemperatureF,DewpointF,PressureIn,WindDirection,WindDirectionDegrees,WindSpeedMPH,WindSpeedGustMPH,Humidity,HourlyPrecipIn,Conditions,Clouds,dailyrainin,SoftwareType,DateUTC
2013-04-15 00:02:00,30.0,21.0,26.91,WSW,247,6.0,8.0,67,0.00,,,0.00,Rainwise IP-100,2013-04-15 06:02:00,
2013-04-15 00:07:00,30.0,21.0,26.91,North,360,12.0,12.0,65,0.00,,,0.00,Rainwise IP-100,2013-04-15 06:07:00,
2013-04-15 00:12:00,30.0,21.0,26.91,ENE,67,7.0,13.0,64,0.00,,,0.00,Rainwise IP-100,2013-04-15 06:12:00,
2013-04-15 00:17:00,30.0,21.0,26.91,ENE,67,6.0,13.0,63,0.00,,,0.00,Rainwise IP-100,2013-04-15 06:17:00,
2013-04-15 00:22:00,30.0,21.0,26.91,ESE,112,0.0,7.0,64,0.00,,,0.00,Rainwise IP-100,2013-04-15 06:22:00,
2013-04-15 00:27:00,30.0,21.0,26.91,NE,45,10.0,10.0,65,0.00,,,0.00,Rainwise IP-100,2013-04-15 06:27:00,
2013-04-15 00:32:00,30.0,21.0,26.91,ESE,112,1.0,11.0,64,0.00,,,0.00,Rainwise IP-100,2013-04-15 06:32:00,
2013-04-15 00:37:00,30.0,21.0,26.91,SE,135,0.0,10.0,63,0.00,,,0.00,Rainwise IP-100,2013-04-15 06:37:00,
2013-04-15 00:42:00,30.0,21.0,26.91,ENE,67,9.0,11.0,62,0.00,,,0.00,Rainwise IP-100,2013-04-15 06:42:00,
2013-04-15 00:47:00,30.0,21.0,26.91,East,90,0.0,10.0,63,0.00,,,0.00,Rainwise IP-100,2013-04-15 06:47:00,
2013-04-15 00:52:00,29.0,18.0,26.92,NNE,22,5.0,7.0,64,0.00,,,0.00,Rainwise IP-100,2013-04-15 06:52:00,
2013-04-15 00:57:00,29.0,18.0,26.92,NNE,22,7.0,10.0,62,0.00,,,0.00,Rainwise IP-100,2013-04-15 06:57:00,
2013-04-15 01:02:00,29.0,18.0,26.93,ENE,67,6.0,9.0,62,0.00,,,0.00,Rainwise IP-100,2013-04-15 07:02:00,
2013-04-15 01:04:00,29.0,18.0,26.93,East,90,5.0,9.0,61,0.00,,,0.00,Rainwise IP-100,2013-04-15 07:04:00,
2013-04-15 01:41:00,29.0,16.0,26.93,NE,45,2.0,9.0,59,0.00,,,0.00,Rainwise IP-100,2013-04-15 07:41:00,
2013-04-15 01:46:00,29.0,18.0,26.93,ENE,67,3.0,9.0,60,0.00,,,0.00,Rainwise IP-100,2013-04-15 07:46:00,
2013-04-15 01:48:00,28.0,16.0,26.93,ENE,67,2.0,8.0,62,0.00,,,0.00,Rainwise IP-100,2013-04-15 07:48:00,
2013-04-15 01:51:00,28.0,16.0,26.93,ENE,67,6.0,10.0,61,0.00,,,0.00,Rainwise IP-100,2013-04-15 07:51:00,
2013-04-15 01:56:00,28.0,16.0,26.93,ENE,67,3.0,10.0,61,0.00,,,0.00,Rainwise IP-100,2013-04-15 07:56:00,
2013-04-15 02:01:00,28.0,16.0,26.93,ENE,67,5.0,9.0,62,0.00,,,0.00,Rainwise IP-100,2013-04-15 08:01:00,
2013-04-15 02:07:00,28.0,16.0,26.93,East,90,4.0,10.0,61,0.00,,,0.00,Rainwise IP-100,2013-04-15 08:07:00,
2013-04-15 02:12:00,28.0,16.0,26.94,NE,45,4.0,11.0,61,0.00,,,0.00,Rainwise IP-100,2013-04-15 08:12:00,
2013-04-15 02:17:00,28.0,16.0,26.94,East,90,4.0,8.0,61,0.00,,,0.00,Rainwise IP-100,2013-04-15 08:17:00,
2013-04-15 02:22:00,28.0,16.0,26.94,ENE,67,5.0,9.0,59,0.00,,,0.00,Rainwise IP-100,2013-04-15 08:22:00,
2013-04-15 02:27:00,28.0,16.0,26.94,NE,45,4.0,7.0,62,0.00,,,0.00,Rainwise IP-100,2013-04-15 08:27:00,
2013-04-15 02:32:00,27.0,16.0,26.94,ENE,67,6.0,9.0,61,0.00,,,0.00,Rainwise IP-100,2013-04-15 08:32:00,
2013-04-15 02:37:00,27.0,16.0,26.94,ENE,67,4.0,9.0,61,0.00,,,0.00,Rainwise IP-100,2013-04-15 08:37:00,
2013-04-15 02:40:00,27.0,16.0,26.94,NE,45,3.0,8.0,61,0.00,,,0.00,Rainwise IP-100,2013-04-15 08:40:00,
2013-04-15 02:45:00,27.0,16.0,26.95,ENE,67,3.0,7.0,61,0.00,,,0.00,Rainwise IP-100,2013-04-15 08:45:00,
2013-04-15 02:46:00,27.0,16.0,26.95,WNW,292,3.0,7.0,61,0.00,,,0.00,Rainwise IP-100,2013-04-15 08:46:00,
2013-04-15 02:51:00,27.0,16.0,26.95,NE,45,6.0,9.0,61,0.00,,,0.00,Rainwise IP-100,2013-04-15 08:51:00,
2013-04-15 02:56:00,27.0,16.0,26.95,ENE,67,3.0,10.0,60,0.00,,,0.00,Rainwise IP-100,2013-04-15 08:56:00,
2013-04-15 03:01:00,27.0,16.0,26.95,NE,45,1.0,8.0,59,0.00,,,0.00,Rainwise IP-100,2013-04-15 09:01:00,
2013-04-15 03:06:00,27.0,16.0,26.95,NE,45,4.0,8.0,58,0.00,,,0.00,Rainwise IP-100,2013-04-15 09:06:00,
2013-04-15 03:11:00,27.0,16.0,26.95,East,90,3.0,10.0,58,0.00,,,0.00,Rainwise IP-100,2013-04-15 09:11:00,
2013-04-15 03:16:00,27.0,16.0,26.95,ENE,67,6.0,9.0,60,0.00,,,0.00,Rainwise IP-100,2013-04-15 09:16:00,
2013-04-15 03:21:00,27.0,16.0,26.95,ENE,67,2.0,10.0,60,0.00,,,0.00,Rainwise IP-100,2013-04-15 09:21:00,
2013-04-15 03:26:00,27.0,16.0,26.95,ENE,67,0.0,6.0,61,0.00,,,0.00,Rainwise IP-100,2013-04-15 09:26:00,
2013-04-15 03:31:00,27.0,16.0,26.95,ENE,67,3.0,7.0,61,0.00,,,0.00,Rainwise IP-100,2013-04-15 09:31:00,
2013-04-15 03:36:00,27.0,16.0,26.95,ENE,67,2.0,8.0,60,0.00,,,0.00,Rainwise IP-100,2013-04-15 09:36:00,
2013-04-15 03:41:00,27.0,16.0,26.95,NNE,22,1.0,5.0,61,0.00,,,0.00,Rainwise IP-100,2013-04-15 09:41:00,
2013-04-15 03:46:00,27.0,16.0,26.95,East,90,1.0,6.0,60,0.00,,,0.00,Rainwise IP-100,2013-04-15 09:46:00,
2013-04-15 03:51:00,27.0,16.0,26.95,ENE,67,1.0,6.0,60,0.00,,,0.00,Rainwise IP-100,2013-04-15 09:51:00,
2013-04-15 03:57:00,27.0,16.0,26.95,SSE,157,5.0,8.0,60,0.00,,,0.00,Rainwise IP-100,2013-04-15 09:57:00,
2013-04-15 04:02:00,27.0,16.0,26.95,ENE,67,4.0,9.0,61,0.00,,,0.00,Rainwise IP-100,2013-04-15 10:02:00,
2013-04-15 04:07:00,27.0,16.0,26.95,North,360,6.0,12.0,59,0.00,,,0.00,Rainwise IP-100,2013-04-15 10:07:00,
2013-04-15 04:12:00,27.0,16.0,26.95,ENE,67,6.0,11.0,60,0.00,,,0.00,Rainwise IP-100,2013-04-15 10:12:00,
2013-04-15 04:17:00,26.0,16.0,26.95,ENE,67,1.0,6.0,61,0.00,,,0.00,Rainwise IP-100,2013-04-15 10:17:00,
2013-04-15 04:22:00,26.0,16.0,26.95,NNW,337,1.0,6.0,61,0.00,,,0.00,Rainwise IP-100,2013-04-15 10:22:00,
2013-04-15 04:27:00,26.0,16.0,26.95,ENE,67,5.0,7.0,61,0.00,,,0.00,Rainwise IP-100,2013-04-15 10:27:00,
2013-04-15 04:32:00,26.0,16.0,26.96,ENE,67,3.0,6.0,61,0.00,,,0.00,Rainwise IP-100,2013-04-15 10:32:00,
2013-04-15 04:37:00,26.0,14.0,26.96,SE,135,3.0,7.0,60,0.00,,,0.00,Rainwise IP-100,2013-04-15 10:37:00,
2013-04-15 04:42:00,26.0,16.0,26.96,ENE,67,0.0,7.0,61,0.00,,,0.00,Rainwise IP-100,2013-04-15 10:42:00,
2013-04-15 04:47:00,26.0,16.0,26.96,NE,45,1.0,6.0,62,0.00,,,0.00,Rainwise IP-100,2013-04-15 10:47:00,
2013-04-15 04:52:00,26.0,16.0,26.96,NNE,22,2.0,5.0,62,0.00,,,0.00,Rainwise IP-100,2013-04-15 10:52:00,
2013-04-15 04:57:00,25.0,16.0,26.96,NNE,22,0.0,5.0,62,0.00,,,0.00,Rainwise IP-100,2013-04-15 10:57:00,
2013-04-15 05:02:00,25.0,16.0,26.97,NNW,337,3.0,4.0,62,0.00,,,0.00,Rainwise IP-100,2013-04-15 11:02:00,
2013-04-15 05:07:00,25.0,16.0,26.97,NNW,337,5.0,7.0,63,0.00,,,0.00,Rainwise IP-100,2013-04-15 11:07:00,
2013-04-15 05:12:00,25.0,16.0,26.97,NE,45,2.0,7.0,62,0.00,,,0.00,Rainwise IP-100,2013-04-15 11:12:00,
2013-04-15 05:17:00,25.0,16.0,26.97,NNW,337,3.0,5.0,63,0.00,,,0.00,Rainwise IP-100,2013-04-15 11:17:00,
2013-04-15 05:22:00,25.0,16.0,26.97,North,360,3.0,5.0,64,0.00,,,0.00,Rainwise IP-100,2013-04-15 11:22:00,
2013-04-15 05:27:00,25.0,16.0,26.97,NE,45,2.0,6.0,64,0.00,,,0.00,Rainwise IP-100,2013-04-15 11:27:00,
2013-04-15 05:32:00,25.0,16.0,26.97,ENE,67,2.0,7.0,63,0.00,,,0.00,Rainwise IP-100,2013-04-15 11:32:00,
2013-04-15 05:37:00,25.0,16.0,26.97,ENE,67,2.0,6.0,63,0.00,,,0.00,Rainwise IP-100,2013-04-15 11:37:00,
2013-04-15 05:42:00,25.0,16.0,26.97,East,90,2.0,7.0,63,0.00,,,0.00,Rainwise IP-100,2013-04-15 11:42:00,
2013-04-15 05:47:00,25.0,16.0,26.97,ENE,67,2.0,8.0,63,0.00,,,0.00,Rainwise IP-100,2013-04-15 11:47:00,
2013-04-15 05:52:00,25.0,16.0,26.97,NNE,22,3.0,7.0,63,0.00,,,0.00,Rainwise IP-100,2013-04-15 11:52:00,
2013-04-15 05:57:00,25.0,16.0,26.97,NE,45,1.0,8.0,62,0.00,,,0.00,Rainwise IP-100,2013-04-15 11:57:00,
2013-04-15 06:02:00,25.0,16.0,26.97,ENE,67,5.0,7.0,62,0.00,,,0.00,Rainwise IP-100,2013-04-15 12:02:00,
2013-04-15 06:07:00,25.0,16.0,26.97,ENE,67,6.0,10.0,63,0.00,,,0.00,Rainwise IP-100,2013-04-15 12:07:00,
2013-04-15 06:12:00,25.0,16.0,26.97,NNE,22,1.0,8.0,62,0.00,,,0.00,Rainwise IP-100,2013-04-15 12:12:00,
2013-04-15 06:17:00,25.0,16.0,26.97,NE,45,1.0,10.0,63,0.00,,,0.00,Rainwise IP-100,2013-04-15 12:17:00,
2013-04-15 06:22:00,25.0,16.0,26.97,NE,45,8.0,8.0,63,0.00,,,0.00,Rainwise IP-100,2013-04-15 12:22:00,
2013-04-15 06:27:00,25.0,16.0,26.97,NNE,22,4.0,10.0,62,0.00,,,0.00,Rainwise IP-100,2013-04-15 12:27:00,
2013-04-15 06:32:00,25.0,16.0,26.97,ENE,67,2.0,9.0,63,0.00,,,0.00,Rainwise IP-100,2013-04-15 12:32:00,
2013-04-15 06:37:00,25.0,16.0,26.97,North,360,4.0,9.0,63,0.00,,,0.00,Rainwise IP-100,2013-04-15 12:37:00,
2013-04-15 06:42:00,25.0,16.0,26.97,ENE,67,6.0,10.0,63,0.00,,,0.00,Rainwise IP-100,2013-04-15 12:42:00,
2013-04-15 06:47:00,25.0,16.0,26.97,North,360,4.0,8.0,63,0.00,,,0.00,Rainwise IP-100,2013-04-15 12:47:00,
2013-04-15 06:52:00,25.0,16.0,26.98,NE,45,8.0,9.0,61,0.00,,,0.00,Rainwise IP-100,2013-04-15 12:52:00,
2013-04-15 06:57:00,25.0,16.0,26.98,NE,45,7.0,9.0,63,0.00,,,0.00,Rainwise IP-100,2013-04-15 12:57:00,
2013-04-15 07:02:00,25.0,16.0,26.98,ENE,67,7.0,9.0,61,0.00,,,0.00,Rainwise IP-100,2013-04-15 13:02:00,
2013-04-15 07:07:00,25.0,16.0,26.98,NE,45,2.0,13.0,62,0.00,,,0.00,Rainwise IP-100,2013-04-15 13:07:00,
2013-04-15 07:12:00,25.0,16.0,26.98,East,90,7.0,15.0,61,0.00,,,0.00,Rainwise IP-100,2013-04-15 13:12:00,
2013-04-15 07:17:00,25.0,16.0,26.98,NE,45,7.0,10.0,62,0.00,,,0.00,Rainwise IP-100,2013-04-15 13:17:00,
2013-04-15 07:22:00,26.0,16.0,26.98,NNW,337,8.0,13.0,61,0.00,,,0.00,Rainwise IP-100,2013-04-15 13:22:00,
2013-04-15 07:28:00,26.0,16.0,26.98,ENE,67,9.0,12.0,61,0.00,,,0.00,Rainwise IP-100,2013-04-15 13:28:00,
2013-04-15 07:33:00,26.0,16.0,26.98,ENE,67,5.0,10.0,61,0.00,,,0.00,Rainwise IP-100,2013-04-15 13:33:00,
2013-04-15 07:38:00,26.0,16.0,26.98,NNE,22,3.0,12.0,61,0.00,,,0.00,Rainwise IP-100,2013-04-15 13:38:00,
2013-04-15 07:43:00,26.0,14.0,26.99,ENE,67,6.0,10.0,59,0.00,,,0.00,Rainwise IP-100,2013-04-15 13:43:00,
2013-04-15 07:48:00,26.0,14.0,26.99,ENE,67,9.0,10.0,59,0.00,,,0.00,Rainwise IP-100,2013-04-15 13:48:00,
2013-04-15 07:53:00,26.0,14.0,26.99,NE,45,2.0,10.0,58,0.00,,,0.00,Rainwise IP-100,2013-04-15 13:53:00,
2013-04-15 07:58:00,26.0,14.0,26.99,NE,45,2.0,7.0,59,0.00,,,0.00,Rainwise IP-100,2013-04-15 13:58:00,
2013-04-15 08:03:00,26.0,14.0,26.99,SE,135,3.0,12.0,59,0.00,,,0.00,Rainwise IP-100,2013-04-15 14:03:00,
2013-04-15 08:08:00,27.0,16.0,26.99,North,360,5.0,9.0,60,0.00,,,0.00,Rainwise IP-100,2013-04-15 14:08:00,
2013-04-15 08:13:00,27.0,16.0,26.99,ESE,112,4.0,9.0,57,0.00,,,0.00,Rainwise IP-100,2013-04-15 14:13:00,
2013-04-15 08:18:00,27.0,16.0,26.99,ENE,67,6.0,9.0,57,0.00,,,0.00,Rainwise IP-100,2013-04-15 14:18:00,
2013-04-15 08:23:00,27.0,16.0,26.99,North,360,2.0,8.0,57,0.00,,,0.00,Rainwise IP-100,2013-04-15 14:23:00,
2013-04-15 08:28:00,27.0,14.0,26.99,SE,135,6.0,10.0,55,0.00,,,0.00,Rainwise IP-100,2013-04-15 14:28:00,
2013-04-15 08:33:00,27.0,14.0,26.99,NNE,22,4.0,9.0,55,0.00,,,0.00,Rainwise IP-100,2013-04-15 14:33:00,
2013-04-15 08:38:00,28.0,14.0,26.99,ENE,67,4.0,10.0,55,0.00,,,0.00,Rainwise IP-100,2013-04-15 14:38:00,
2013-04-15 08:43:00,28.0,14.0,26.99,ENE,67,4.0,15.0,55,0.00,,,0.00,Rainwise IP-100,2013-04-15 14:43:00,
2013-04-15 08:48:00,28.0,14.0,26.99,ENE,67,5.0,13.0,52,0.00,,,0.00,Rainwise IP-100,2013-04-15 14:48:00,
2013-04-15 08:53:00,28.0,14.0,26.99,NE,45,5.0,8.0,52,0.00,,,0.00,Rainwise IP-100,2013-04-15 14:53:00,
2013-04-15 08:58:00,29.0,14.0,26.99,ESE,112,10.0,13.0,50,0.00,,,0.00,Rainwise IP-100,2013-04-15 14:58:00,
2013-04-15 09:03:00,29.0,14.0,26.99,ENE,67,7.0,10.0,51,0.00,,,0.00,Rainwise IP-100,2013-04-15 15:03:00,
2013-04-15 09:08:00,29.0,14.0,26.99,ESE,112,7.0,13.0,49,0.00,,,0.00,Rainwise IP-100,2013-04-15 15:08:00,
2013-04-15 09:13:00,30.0,16.0,26.98,NNE,22,6.0,9.0,50,0.00,,,0.00,Rainwise IP-100,2013-04-15 15:13:00,
2013-04-15 09:18:00,30.0,16.0,26.98,ESE,112,1.0,10.0,50,0.00,,,0.00,Rainwise IP-100,2013-04-15 15:18:00,
2013-04-15 09:23:00,30.0,14.0,26.98,SE,135,6.0,8.0,48,0.00,,,0.00,Rainwise IP-100,2013-04-15 15:23:00,
2013-04-15 09:28:00,30.0,16.0,26.98,NNE,22,6.0,9.0,50,0.00,,,0.00,Rainwise IP-100,2013-04-15 15:28:00,
2013-04-15 09:33:00,31.0,14.0,26.97,NE,45,5.0,12.0,49,0.00,,,0.00,Rainwise IP-100,2013-04-15 15:33:00,
2013-04-15 09:38:00,31.0,14.0,26.97,ESE,112,5.0,11.0,49,0.00,,,0.00,Rainwise IP-100,2013-04-15 15:38:00,
2013-04-15 09:43:00,32.0,16.0,26.97,ESE,112,1.0,12.0,48,0.00,,,0.00,Rainwise IP-100,2013-04-15 15:43:00,
2013-04-15 09:48:00,32.0,14.0,26.97,ENE,67,2.0,10.0,47,0.00,,,0.00,Rainwise IP-100,2013-04-15 15:48:00,
2013-04-15 09:53:00,32.0,14.0,26.97,East,90,9.0,9.0,47,0.00,,,0.00,Rainwise IP-100,2013-04-15 15:53:00,
2013-04-15 09:58:00,32.0,14.0,26.97,ENE,67,3.0,11.0,44,0.00,,,0.00,Rainwise IP-100,2013-04-15 15:58:00,
2013-04-15 10:03:00,32.0,14.0,26.97,North,360,7.0,13.0,45,0.00,,,0.00,Rainwise IP-100,2013-04-15 16:03:00,
2013-04-15 10:08:00,32.0,14.0,26.97,ESE,112,5.0,16.0,45,0.00,,,0.00,Rainwise IP-100,2013-04-15 16:08:00,
2013-04-15 10:13:00,33.0,14.0,26.96,ENE,67,11.0,13.0,42,0.00,,,0.00,Rainwise IP-100,2013-04-15 16:13:00,
2013-04-15 10:18:00,33.0,14.0,26.96,ESE,112,11.0,15.0,43,0.00,,,0.00,Rainwise IP-100,2013-04-15 16:18:00,
2013-04-15 10:23:00,33.0,14.0,26.96,ENE,67,7.0,12.0,41,0.00,,,0.00,Rainwise IP-100,2013-04-15 16:23:00,
2013-04-15 10:28:00,34.0,14.0,26.96,North,360,5.0,12.0,40,0.00,,,0.00,Rainwise IP-100,2013-04-15 16:28:00,
2013-04-15 10:33:00,34.0,14.0,26.96,NE,45,3.0,14.0,38,0.00,,,0.00,Rainwise IP-100,2013-04-15 16:33:00,
2013-04-15 10:38:00,34.0,14.0,26.96,NNE,22,4.0,12.0,39,0.00,,,0.00,Rainwise IP-100,2013-04-15 16:38:00,
2013-04-15 10:43:00,34.0,14.0,26.96,East,90,6.0,12.0,39,0.00,,,0.00,Rainwise IP-100,2013-04-15 16:43:00,
2013-04-15 10:48:00,34.0,14.0,26.96,ENE,67,6.0,16.0,39,0.00,,,0.00,Rainwise IP-100,2013-04-15 16:48:00,
2013-04-15 10:53:00,34.0,11.0,26.95,ENE,67,8.0,13.0,37,0.00,,,0.00,Rainwise IP-100,2013-04-15 16:53:00,
2013-04-15 10:58:00,34.0,14.0,26.95,NE,45,6.0,15.0,41,0.00,,,0.00,Rainwise IP-100,2013-04-15 16:58:00,
2013-04-15 11:03:00,34.0,11.0,26.95,ENE,67,9.0,14.0,37,0.00,,,0.00,Rainwise IP-100,2013-04-15 17:03:00,
2013-04-15 11:08:00,34.0,14.0,26.95,SE,135,10.0,14.0,38,0.00,,,0.00,Rainwise IP-100,2013-04-15 17:08:00,
2013-04-15 11:13:00,34.0,11.0,26.95,ESE,112,5.0,16.0,37,0.00,,,0.00,Rainwise IP-100,2013-04-15 17:13:00,
2013-04-15 11:18:00,35.0,14.0,26.95,East,90,6.0,18.0,39,0.00,,,0.00,Rainwise IP-100,2013-04-15 17:18:00,
2013-04-15 11:21:00,35.0,11.0,26.95,SE,135,3.0,14.0,37,0.00,,,0.00,Rainwise IP-100,2013-04-15 17:21:00,
2013-04-15 11:26:00,35.0,11.0,26.95,East,90,6.0,10.0,36,0.00,,,0.00,Rainwise IP-100,2013-04-15 17:26:00,
2013-04-15 11:31:00,36.0,14.0,26.94,WNW,292,4.0,16.0,37,0.00,,,0.00,Rainwise IP-100,2013-04-15 17:31:00,
2013-04-15 11:36:00,36.0,11.0,26.94,ENE,67,5.0,12.0,35,0.00,,,0.00,Rainwise IP-100,2013-04-15 17:36:00,
2013-04-15 11:41:00,36.0,11.0,26.94,ENE,67,5.0,10.0,34,0.00,,,0.00,Rainwise IP-100,2013-04-15 17:41:00,
2013-04-15 11:46:00,37.0,16.0,26.94,NE,45,6.0,13.0,39,0.00,,,0.00,Rainwise IP-100,2013-04-15 17:46:00,
2013-04-15 11:51:00,37.0,14.0,26.94,SE,135,5.0,16.0,35,0.00,,,0.00,Rainwise IP-100,2013-04-15 17:51:00,
2013-04-15 11:56:00,36.0,14.0,26.94,ENE,67,8.0,13.0,37,0.00,,,0.00,Rainwise IP-100,2013-04-15 17:56:00,
2013-04-15 12:01:00,37.0,14.0,26.94,ESE,112,3.0,19.0,36,0.00,,,0.00,Rainwise IP-100,2013-04-15 18:01:00,
2013-04-15 12:07:00,36.0,14.0,26.94,SE,135,6.0,18.0,36,0.00,,,0.00,Rainwise IP-100,2013-04-15 18:07:00,
2013-04-15 12:12:00,37.0,14.0,26.95,ENE,67,9.0,17.0,35,0.00,,,0.00,Rainwise IP-100,2013-04-15 18:12:00,
2013-04-15 12:17:00,37.0,14.0,26.95,ESE,112,5.0,17.0,35,0.00,,,0.00,Rainwise IP-100,2013-04-15 18:17:00,
2013-04-15 12:22:00,37.0,11.0,26.94,SSE,157,7.0,18.0,34,0.00,,,0.00,Rainwise IP-100,2013-04-15 18:22:00,
2013-04-15 12:27:00,36.0,11.0,26.94,NE,45,4.0,16.0,34,0.00,,,0.00,Rainwise IP-100,2013-04-15 18:27:00,
2013-04-15 12:29:00,36.0,14.0,26.94,ENE,67,10.0,16.0,36,0.00,,,0.00,Rainwise IP-100,2013-04-15 18:29:00,
2013-04-15 12:34:00,37.0,11.0,26.94,SE,135,5.0,15.0,34,0.00,,,0.00,Rainwise IP-100,2013-04-15 18:34:00,
2013-04-15 12:39:00,38.0,16.0,26.94,SSE,157,4.0,10.0,37,0.00,,,0.00,Rainwise IP-100,2013-04-15 18:39:00,
2013-04-15 12:44:00,38.0,14.0,26.93,ENE,67,4.0,11.0,35,0.00,,,0.00,Rainwise IP-100,2013-04-15 18:44:00,
2013-04-15 12:49:00,37.0,14.0,26.93,ESE,112,9.0,16.0,36,0.00,,,0.00,Rainwise IP-100,2013-04-15 18:49:00,
2013-04-15 12:54:00,38.0,14.0,26.93,ENE,67,4.0,12.0,36,0.00,,,0.00,Rainwise IP-100,2013-04-15 18:54:00,
2013-04-15 12:59:00,37.0,14.0,26.93,ESE,112,7.0,15.0,35,0.00,,,0.00,Rainwise IP-100,2013-04-15 18:59:00,
2013-04-15 13:04:00,37.0,14.0,26.94,ENE,67,8.0,17.0,35,0.00,,,0.00,Rainwise IP-100,2013-04-15 19:04:00,
2013-04-15 13:09:00,36.0,11.0,26.94,ESE,112,7.0,10.0,35,0.00,,,0.00,Rainwise IP-100,2013-04-15 19:09:00,
2013-04-15 13:14:00,37.0,11.0,26.94,ESE,112,2.0,10.0,34,0.00,,,0.00,Rainwise IP-100,2013-04-15 19:14:00,
2013-04-15 13:19:00,37.0,11.0,26.94,NNE,22,6.0,15.0,34,0.00,,,0.00,Rainwise IP-100,2013-04-15 19:19:00,
2013-04-15 13:24:00,37.0,14.0,26.94,SE,135,5.0,11.0,37,0.00,,,0.00,Rainwise IP-100,2013-04-15 19:24:00,
2013-04-15 13:29:00,38.0,14.0,26.94,ESE,112,12.0,20.0,33,0.00,,,0.00,Rainwise IP-100,2013-04-15 19:29:00,
2013-04-15 13:34:00,38.0,14.0,26.93,NE,45,9.0,16.0,33,0.00,,,0.00,Rainwise IP-100,2013-04-15 19:34:00,
2013-04-15 13:39:00,38.0,14.0,26.93,NE,45,6.0,16.0,36,0.00,,,0.00,Rainwise IP-100,2013-04-15 19:39:00,
2013-04-15 13:44:00,37.0,11.0,26.93,ESE,112,5.0,16.0,34,0.00,,,0.00,Rainwise IP-100,2013-04-15 19:44:00,
2013-04-15 13:49:00,37.0,11.0,26.93,ENE,67,9.0,15.0,34,0.00,,,0.00,Rainwise IP-100,2013-04-15 19:49:00,
2013-04-15 13:54:00,37.0,14.0,26.93,ESE,112,7.0,10.0,35,0.00,,,0.00,Rainwise IP-100,2013-04-15 19:54:00,
2013-04-15 13:59:00,38.0,14.0,26.93,NNE,22,6.0,12.0,35,0.00,,,0.00,Rainwise IP-100,2013-04-15 19:59:00,
2013-04-15 14:02:00,38.0,14.0,26.92,NE,45,6.0,15.0,35,0.00,,,0.00,Rainwise IP-100,2013-04-15 20:02:00,
2013-04-15 14:06:00,38.0,14.0,26.92,NNE,22,8.0,13.0,33,0.00,,,0.00,Rainwise IP-100,2013-04-15 20:06:00,
2013-04-15 14:11:00,38.0,14.0,26.93,North,360,3.0,16.0,35,0.00,,,0.00,Rainwise IP-100,2013-04-15 20:11:00,
2013-04-15 14:16:00,39.0,14.0,26.93,NNE,22,7.0,13.0,32,0.00,,,0.00,Rainwise IP-100,2013-04-15 20:16:00,
2013-04-15 14:21:00,39.0,11.0,26.92,ESE,112,9.0,15.0,31,0.00,,,0.00,Rainwise IP-100,2013-04-15 20:21:00,
2013-04-15 14:26:00,39.0,16.0,26.92,ENE,67,4.0,13.0,36,0.00,,,0.00,Rainwise IP-100,2013-04-15 20:26:00,
2013-04-15 14:31:00,39.0,14.0,26.92,ENE,67,9.0,15.0,32,0.00,,,0.00,Rainwise IP-100,2013-04-15 20:31:00,
2013-04-15 14:36:00,38.0,14.0,26.92,East,90,9.0,12.0,34,0.00,,,0.00,Rainwise IP-100,2013-04-15 20:36:00,
2013-04-15 14:41:00,39.0,14.0,26.92,ENE,67,12.0,13.0,32,0.00,,,0.00,Rainwise IP-100,2013-04-15 20:41:00,
2013-04-15 14:46:00,38.0,14.0,26.92,NE,45,4.0,14.0,34,0.00,,,0.00,Rainwise IP-100,2013-04-15 20:46:00,
2013-04-15 14:51:00,39.0,14.0,26.93,ENE,67,7.0,10.0,33,0.00,,,0.00,Rainwise IP-100,2013-04-15 20:51:00,
2013-04-15 14:56:00,39.0,11.0,26.93,NE,45,7.0,10.0,31,0.00,,,0.00,Rainwise IP-100,2013-04-15 20:56:00,
2013-04-15 15:01:00,39.0,11.0,26.92,NE,45,9.0,16.0,31,0.00,,,0.00,Rainwise IP-100,2013-04-15 21:01:00,
2013-04-15 15:06:00,39.0,14.0,26.92,ESE,112,2.0,13.0,32,0.00,,,0.00,Rainwise IP-100,2013-04-15 21:06:00,
2013-04-15 15:11:00,39.0,14.0,26.93,ESE,112,3.0,10.0,32,0.00,,,0.00,Rainwise IP-100,2013-04-15 21:11:00,
2013-04-15 15:16:00,39.0,14.0,26.93,SE,135,9.0,11.0,32,0.00,,,0.00,Rainwise IP-100,2013-04-15 21:16:00,
2013-04-15 15:21:00,39.0,11.0,26.93,ENE,67,7.0,12.0,31,0.00,,,0.00,Rainwise IP-100,2013-04-15 21:21:00,
2013-04-15 15:26:00,39.0,11.0,26.93,North,360,4.0,13.0,31,0.00,,,0.00,Rainwise IP-100,2013-04-15 21:26:00,
2013-04-15 15:31:00,39.0,11.0,26.92,NNW,337,12.0,12.0,29,0.00,,,0.00,Rainwise IP-100,2013-04-15 21:31:00,
2013-04-15 15:36:00,39.0,11.0,26.92,South,180,2.0,16.0,29,0.00,,,0.00,Rainwise IP-100,2013-04-15 21:36:00,
2013-04-15 15:41:00,39.0,11.0,26.93,ENE,67,3.0,12.0,29,0.00,,,0.00,Rainwise IP-100,2013-04-15 21:41:00,
2013-04-15 15:46:00,39.0,11.0,26.93,ESE,112,9.0,14.0,30,0.00,,,0.00,Rainwise IP-100,2013-04-15 21:46:00,
2013-04-15 15:51:00,39.0,11.0,26.93,SE,135,14.0,14.0,31,0.00,,,0.00,Rainwise IP-100,2013-04-15 21:51:00,
2013-04-15 15:56:00,40.0,14.0,26.93,ENE,67,5.0,15.0,32,0.00,,,0.00,Rainwise IP-100,2013-04-15 21:56:00,
2013-04-15 16:01:00,41.0,11.0,26.91,ENE,67,10.0,17.0,27,0.00,,,0.00,Rainwise IP-100,2013-04-15 22:01:00,
2013-04-15 16:06:00,41.0,14.0,26.91,NE,45,6.0,17.0,31,0.00,,,0.00,Rainwise IP-100,2013-04-15 22:06:00,
2013-04-15 16:11:00,41.0,11.0,26.91,ENE,67,9.0,16.0,28,0.00,,,0.00,Rainwise IP-100,2013-04-15 22:11:00,
2013-04-15 16:16:00,41.0,11.0,26.91,NE,45,16.0,16.0,27,0.00,,,0.00,Rainwise IP-100,2013-04-15 22:16:00,
2013-04-15 16:21:00,41.0,11.0,26.91,ENE,67,6.0,16.0,27,0.00,,,0.00,Rainwise IP-100,2013-04-15 22:21:00,
2013-04-15 16:26:00,40.0,11.0,26.91,ENE,67,7.0,14.0,28,0.00,,,0.00,Rainwise IP-100,2013-04-15 22:26:00,
2013-04-15 16:31:00,41.0,11.0,26.91,SSE,157,5.0,14.0,27,0.00,,,0.00,Rainwise IP-100,2013-04-15 22:31:00,
2013-04-15 16:36:00,42.0,14.0,26.91,SE,135,1.0,15.0,29,0.00,,,0.00,Rainwise IP-100,2013-04-15 22:36:00,
2013-04-15 16:41:00,42.0,11.0,26.91,NE,45,13.0,13.0,26,0.00,,,0.00,Rainwise IP-100,2013-04-15 22:41:00,
2013-04-15 16:46:00,41.0,11.0,26.91,NNE,22,5.0,15.0,27,0.00,,,0.00,Rainwise IP-100,2013-04-15 22:46:00,
2013-04-15 16:51:00,40.0,11.0,26.92,NE,45,4.0,16.0,29,0.00,,,0.00,Rainwise IP-100,2013-04-15 22:51:00,
2013-04-15 16:56:00,40.0,11.0,26.92,ENE,67,7.0,16.0,29,0.00,,,0.00,Rainwise IP-100,2013-04-15 22:56:00,
2013-04-15 17:01:00,40.0,11.0,26.93,NE,45,10.0,16.0,28,0.00,,,0.00,Rainwise IP-100,2013-04-15 23:01:00,
2013-04-15 17:06:00,40.0,11.0,26.93,East,90,3.0,16.0,27,0.00,,,0.00,Rainwise IP-100,2013-04-15 23:06:00,
2013-04-15 17:11:00,41.0,11.0,26.92,ESE,112,8.0,14.0,27,0.00,,,0.00,Rainwise IP-100,2013-04-15 23:11:00,
2013-04-15 17:16:00,40.0,11.0,26.92,NE,45,8.0,16.0,28,0.00,,,0.00,Rainwise IP-100,2013-04-15 23:16:00,
2013-04-15 17:21:00,42.0,14.0,26.91,NW,315,1.0,12.0,29,0.00,,,0.00,Rainwise IP-100,2013-04-15 23:21:00,
2013-04-15 17:26:00,42.0,14.0,26.91,WNW,292,5.0,16.0,29,0.00,,,0.00,Rainwise IP-100,2013-04-15 23:26:00,
2013-04-15 17:31:00,42.0,11.0,26.92,NNE,22,7.0,19.0,27,0.00,,,0.00,Rainwise IP-100,2013-04-15 23:31:00,
2013-04-15 17:36:00,40.0,11.0,26.92,SSW,202,6.0,16.0,29,0.00,,,0.00,Rainwise IP-100,2013-04-15 23:36:00,
2013-04-15 17:41:00,40.0,11.0,26.93,East,90,9.0,16.0,28,0.00,,,0.00,Rainwise IP-100,2013-04-15 23:41:00,
2013-04-15 17:46:00,40.0,14.0,26.93,SSE,157,7.0,15.0,30,0.00,,,0.00,Rainwise IP-100,2013-04-15 23:46:00,
2013-04-15 17:51:00,41.0,11.0,26.93,NE,45,6.0,14.0,28,0.00,,,0.00,Rainwise IP-100,2013-04-15 23:51:00,
2013-04-15 17:56:00,40.0,11.0,26.93,NE,45,9.0,17.0,27,0.00,,,0.00,Rainwise IP-100,2013-04-15 23:56:00,
2013-04-15 18:01:00,40.0,11.0,26.94,ENE,67,5.0,15.0,27,0.00,,,0.00,Rainwise IP-100,2013-04-16 00:01:00,
2013-04-15 18:06:00,40.0,11.0,26.94,ENE,67,10.0,17.0,29,0.00,,,0.00,Rainwise IP-100,2013-04-16 00:06:00,
2013-04-15 18:11:00,40.0,11.0,26.94,NNE,22,7.0,15.0,29,0.00,,,0.00,Rainwise IP-100,2013-04-16 00:11:00,
2013-04-15 18:16:00,40.0,11.0,26.94,ENE,67,10.0,17.0,29,0.00,,,0.00,Rainwise IP-100,2013-04-16 00:16:00,
2013-04-15 18:21:00,40.0,14.0,26.95,NE,45,5.0,17.0,31,0.00,,,0.00,Rainwise IP-100,2013-04-16 00:21:00,
2013-04-15 18:26:00,40.0,11.0,26.95,NNW,337,5.0,15.0,29,0.00,,,0.00,Rainwise IP-100,2013-04-16 00:26:00,
2013-04-15 18:31:00,40.0,11.0,26.95,ENE,67,6.0,17.0,29,0.00,,,0.00,Rainwise IP-100,2013-04-16 00:31:00,
2013-04-15 18:36:00,39.0,11.0,26.95,ENE,67,7.0,19.0,28,0.00,,,0.00,Rainwise IP-100,2013-04-16 00:36:00,
2013-04-15 18:41:00,39.0,11.0,26.96,NNE,22,7.0,15.0,29,0.00,,,0.00,Rainwise IP-100,2013-04-16 00:41:00,
2013-04-15 18:46:00,39.0,11.0,26.96,East,90,9.0,13.0,29,0.00,,,0.00,Rainwise IP-100,2013-04-16 00:46:00,
2013-04-15 18:51:00,40.0,11.0,26.96,ESE,112,3.0,13.0,29,0.00,,,0.00,Rainwise IP-100,2013-04-16 00:51:00,
2013-04-15 18:56:00,39.0,11.0,26.96,ENE,67,7.0,19.0,29,0.00,,,0.00,Rainwise IP-100,2013-04-16 00:56:00,
2013-04-15 19:01:00,39.0,11.0,26.97,NE,45,9.0,20.0,30,0.00,,,0.00,Rainwise IP-100,2013-04-16 01:01:00,
2013-04-15 19:06:00,38.0,11.0,26.97,East,90,5.0,15.0,31,0.00,,,0.00,Rainwise IP-100,2013-04-16 01:06:00,
2013-04-15 19:11:00,38.0,11.0,26.97,East,90,9.0,17.0,31,0.00,,,0.00,Rainwise IP-100,2013-04-16 01:11:00,
2013-04-15 19:16:00,38.0,11.0,26.97,NW,315,7.0,16.0,31,0.00,,,0.00,Rainwise IP-100,2013-04-16 01:16:00,
2013-04-15 19:21:00,38.0,11.0,26.97,SE,135,2.0,15.0,31,0.00,,,0.00,Rainwise IP-100,2013-04-16 01:21:00,
2013-04-15 19:26:00,37.0,11.0,26.97,East,90,3.0,10.0,32,0.00,,,0.00,Rainwise IP-100,2013-04-16 01:26:00,
2013-04-15 19:31:00,37.0,11.0,26.99,NE,45,5.0,17.0,31,0.00,,,0.00,Rainwise IP-100,2013-04-16 01:31:00,
2013-04-15 19:36:00,36.0,11.0,26.99,ENE,67,6.0,19.0,32,0.00,,,0.00,Rainwise IP-100,2013-04-16 01:36:00,
2013-04-15 19:41:00,37.0,11.0,26.99,ESE,112,8.0,17.0,31,0.00,,,0.00,Rainwise IP-100,2013-04-16 01:41:00,
2013-04-15 19:46:00,36.0,11.0,26.99,NW,315,0.0,15.0,32,0.00,,,0.00,Rainwise IP-100,2013-04-16 01:46:00,
2013-04-15 19:51:00,36.0,11.0,27.00,SE,135,8.0,12.0,33,0.00,,,0.00,Rainwise IP-100,2013-04-16 01:51:00,
2013-04-15 19:56:00,35.0,11.0,27.00,SSW,202,4.0,13.0,34,0.00,,,0.00,Rainwise IP-100,2013-04-16 01:56:00,
2013-04-15 20:01:00,35.0,11.0,27.01,ENE,67,10.0,14.0,35,0.00,,,0.00,Rainwise IP-100,2013-04-16 02:01:00,
2013-04-15 20:06:00,35.0,11.0,27.01,ENE,67,11.0,16.0,36,0.00,,,0.00,Rainwise IP-100,2013-04-16 02:06:00,
2013-04-15 20:11:00,35.0,11.0,27.01,SE,135,2.0,14.0,35,0.00,,,0.00,Rainwise IP-100,2013-04-16 02:11:00,
2013-04-15 20:16:00,34.0,11.0,27.01,SE,135,8.0,13.0,34,0.00,,,0.00,Rainwise IP-100,2013-04-16 02:16:00,
2013-04-15 20:21:00,34.0,11.0,27.01,ESE,112,8.0,13.0,34,0.00,,,0.00,Rainwise IP-100,2013-04-16 02:21:00,
2013-04-15 20:26:00,34.0,11.0,27.02,SSW,202,1.0,15.0,36,0.00,,,0.00,Rainwise IP-100,2013-04-16 02:26:00,
2013-04-15 20:31:00,34.0,11.0,27.02,ESE,112,7.0,15.0,36,0.00,,,0.00,Rainwise IP-100,2013-04-16 02:31:00,
2013-04-15 20:36:00,34.0,11.0,27.03,SE,135,6.0,16.0,36,0.00,,,0.00,Rainwise IP-100,2013-04-16 02:36:00,
2013-04-15 20:41:00,34.0,11.0,27.03,ENE,67,4.0,17.0,36,0.00,,,0.00,Rainwise IP-100,2013-04-16 02:41:00,
2013-04-15 20:46:00,33.0,11.0,27.03,ENE,67,11.0,15.0,37,0.00,,,0.00,Rainwise IP-100,2013-04-16 02:46:00,
2013-04-15 20:51:00,33.0,11.0,27.04,ENE,67,7.0,16.0,37,0.00,,,0.00,Rainwise IP-100,2013-04-16 02:51:00,
2013-04-15 20:56:00,33.0,11.0,27.04,ESE,112,8.0,14.0,37,0.00,,,0.00,Rainwise IP-100,2013-04-16 02:56:00,
2013-04-15 21:01:00,33.0,11.0,27.04,ENE,67,10.0,12.0,37,0.00,,,0.00,Rainwise IP-100,2013-04-16 03:01:00,
2013-04-15 21:06:00,33.0,11.0,27.04,ESE,112,7.0,16.0,37,0.00,,,0.00,Rainwise IP-100,2013-04-16 03:06:00,
2013-04-15 21:11:00,33.0,11.0,27.05,ENE,67,9.0,20.0,37,0.00,,,0.00,Rainwise IP-100,2013-04-16 03:11:00,
2013-04-15 21:16:00,32.0,11.0,27.05,NNE,22,11.0,13.0,38,0.00,,,0.00,Rainwise IP-100,2013-04-16 03:16:00,
2013-04-15 21:21:00,32.0,11.0,27.06,East,90,5.0,16.0,38,0.00,,,0.00,Rainwise IP-100,2013-04-16 03:21:00,
2013-04-15 21:26:00,32.0,11.0,27.06,SE,135,1.0,11.0,39,0.00,,,0.00,Rainwise IP-100,2013-04-16 03:26:00,
2013-04-15 21:31:00,32.0,11.0,27.07,NNE,22,7.0,10.0,39,0.00,,,0.00,Rainwise IP-100,2013-04-16 03:31:00,
2013-04-15 21:36:00,32.0,11.0,27.07,ENE,67,11.0,14.0,38,0.00,,,0.00,Rainwise IP-100,2013-04-16 03:36:00,
2013-04-15 21:41:00,32.0,11.0,27.07,ENE,67,6.0,13.0,38,0.00,,,0.00,Rainwise IP-100,2013-04-16 03:41:00,
2013-04-15 21:46:00,31.0,11.0,27.07,North,360,5.0,12.0,39,0.00,,,0.00,Rainwise IP-100,2013-04-16 03:46:00,
2013-04-15 21:51:00,32.0,11.0,27.08,ESE,112,4.0,15.0,39,0.00,,,0.00,Rainwise IP-100,2013-04-16 03:51:00,
2013-04-15 21:56:00,31.0,11.0,27.08,ENE,67,9.0,13.0,40,0.00,,,0.00,Rainwise IP-100,2013-04-16 03:56:00,
2013-04-15 22:00:00,31.0,11.0,27.08,East,90,5.0,13.0,39,0.00,,,0.00,Rainwise IP-100,2013-04-16 04:00:00,
2013-04-15 22:05:00,31.0,11.0,27.09,SE,135,3.0,9.0,39,0.00,,,0.00,Rainwise IP-100,2013-04-16 04:05:00,
2013-04-15 22:10:00,31.0,11.0,27.09,NE,45,3.0,9.0,39,0.00,,,0.00,Rainwise IP-100,2013-04-16 04:10:00,
2013-04-15 22:15:00,30.0,8.0,27.09,NNE,22,7.0,10.0,38,0.00,,,0.00,Rainwise IP-100,2013-04-16 04:15:00,
2013-04-15 22:20:00,30.0,8.0,27.09,ENE,67,7.0,15.0,38,0.00,,,0.00,Rainwise IP-100,2013-04-16 04:20:00,
2013-04-15 22:23:00,30.0,8.0,27.09,East,90,4.0,10.0,38,0.00,,,0.00,Rainwise IP-100,2013-04-16 04:23:00,
2013-04-15 22:28:00,30.0,11.0,27.09,East,90,6.0,10.0,40,0.00,,,0.00,Rainwise IP-100,2013-04-16 04:28:00,
2013-04-15 22:33:00,30.0,11.0,27.11,SE,135,10.0,11.0,40,0.00,,,0.00,Rainwise IP-100,2013-04-16 04:33:00,
2013-04-15 22:38:00,30.0,11.0,27.11,ESE,112,4.0,12.0,40,0.00,,,0.00,Rainwise IP-100,2013-04-16 04:38:00,
2013-04-15 22:43:00,30.0,11.0,27.10,ENE,67,9.0,16.0,40,0.00,,,0.00,Rainwise IP-100,2013-04-16 04:43:00,
2013-04-15 22:48:00,30.0,11.0,27.10,ENE,67,7.0,13.0,42,0.00,,,0.00,Rainwise IP-100,2013-04-16 04:48:00,
2013-04-15 22:53:00,30.0,11.0,27.10,ESE,112,6.0,15.0,42,0.00,,,0.00,Rainwise IP-100,2013-04-16 04:53:00,
2013-04-15 22:58:00,30.0,11.0,27.10,ENE,67,9.0,19.0,42,0.00,,,0.00,Rainwise IP-100,2013-04-16 04:58:00,
2013-04-15 23:03:00,29.0,11.0,27.11,ENE,67,8.0,9.0,43,0.00,,,0.00,Rainwise IP-100,2013-04-16 05:03:00,
2013-04-15 23:08:00,29.0,11.0,27.11,ESE,112,1.0,10.0,43,0.00,,,0.00,Rainwise IP-100,2013-04-16 05:08:00,
2013-04-15 23:13:00,29.0,11.0,27.11,ENE,67,6.0,9.0,44,0.00,,,0.00,Rainwise IP-100,2013-04-16 05:13:00,
2013-04-15 23:18:00,29.0,11.0,27.11,East,90,1.0,8.0,44,0.00,,,0.00,Rainwise IP-100,2013-04-16 05:18:00,
2013-04-15 23:23:00,29.0,11.0,27.11,ENE,67,6.0,11.0,45,0.00,,,0.00,Rainwise IP-100,2013-04-16 05:23:00,
2013-04-15 23:28:00,29.0,11.0,27.11,East,90,4.0,12.0,45,0.00,,,0.00,Rainwise IP-100,2013-04-16 05:28:00,
2013-04-15 23:33:00,28.0,11.0,27.11,ESE,112,5.0,9.0,45,0.00,,,0.00,Rainwise IP-100,2013-04-16 05:33:00,
2013-04-15 23:38:00,28.0,11.0,27.11,NE,45,5.0,12.0,45,0.00,,,0.00,Rainwise IP-100,2013-04-16 05:38:00,
2013-04-15 23:43:00,28.0,11.0,27.11,ENE,67,7.0,20.0,46,0.00,,,0.00,Rainwise IP-100,2013-04-16 05:43:00,
2013-04-15 23:48:00,28.0,11.0,27.11,East,90,7.0,13.0,47,0.00,,,0.00,Rainwise IP-100,2013-04-16 05:48:00,
2013-04-15 23:53:00,28.0,11.0,27.12,NE,45,6.0,13.0,47,0.00,,,0.00,Rainwise IP-100,2013-04-16 05:53:00,
2013-04-15 23:58:00,28.0,11.0,27.12,ENE,67,7.0,12.0,47,0.00,,,0.00,Rainwise IP-100,2013-04-16 05:58:00,